Weather History for KDMN - March, 2012

Change the Weather History Date:

Friday, March 23, 2012

  Actual Average Record
Temperature  
Mean Temperature 60 °F 53 °F  
Max Temperature 79 °F 69 °F 85 °F (1990)
Min Temperature 40 °F 36 °F 22 °F (1964)
Degree Days  
Heating Degree Days 5    
Growing Degree Days 10 (Base 50)    
Moisture  
Dew Point 20 °F    
Average Humidity 26    
Maximum Humidity 43    
Minimum Humidity 9    
Precipitation  
Precipitation 0.00 in 0.01 in 0.00 in (2015)
Month to date precipitation 0.04 0.33  
Year to date precipitation 0.64 1.53  
Sea Level Pressure  
Sea Level Pressure 29.92 in    
Wind  
Wind Speed 8 mph (WSW)    
Max Wind Speed 17 mph    
Max Gust Speed 25 mph    
Visibility 10 miles    
Events      
T = Trace of Precipitation, MM = Missing Value Source: NWS Daily Summary

Daily Weather History Graph

Daily Weather History Graph

Search for Another Location

Airport or City:

Trip Planner

Search our weather history database for the weather conditions in past years. The results will help you decide how hot, cold, wet, or windy it might be!

Date:

Astronomy

Mar. 23, 2012 Rise Set
Actual Time 7:10 AM MDT 7:24 PM MDT
Civil Twilight 6:45 AM MDT 7:49 PM MDT
Nautical Twilight 6:16 AM MDT 8:18 PM MDT
Astronomical Twilight 5:48 AM MDT 8:47 PM MDT
Moon 7:26 AM MDT (3/23) 8:41 PM MDT (3/23)
Length of Visible Light 13h 03m
Length of Day
12h 14m
New Moon, 1% of the Moon is Illuminated
Mar 23
New Moon
Mar 30
First Quarter
Apr 6
Full
Apr 13
Last Quarter
Apr 21
New

Hourly Weather History & Observations

Time (MDT) Temp. Windchill Dew Point Humidity Pressure Visibility Wind Dir Wind Speed Gust Speed Precip Events Conditions
12:53 AM 52.0 °F - 18.0 °F 26% 29.88 in 10.0 mi SW 4.6 mph - N/A   Clear
1:53 AM 48.9 °F - 18.0 °F 29% 29.89 in 10.0 mi SW 5.8 mph - N/A   Clear
2:53 AM 45.0 °F 40.6 °F 19.0 °F 36% 29.90 in 10.0 mi West 8.1 mph - N/A   Clear
3:53 AM 44.1 °F 39.5 °F 19.0 °F 37% 29.91 in 10.0 mi SSW 8.1 mph - N/A   Clear
4:53 AM 44.1 °F 40.8 °F 19.0 °F 37% 29.91 in 10.0 mi WSW 5.8 mph - N/A   Clear
5:53 AM 42.1 °F - 19.0 °F 40% 29.92 in 10.0 mi Calm Calm - N/A   Clear
6:53 AM 43.0 °F 38.8 °F 19.9 °F 40% 29.96 in 10.0 mi SW 6.9 mph - N/A   Clear
7:53 AM 43.0 °F 37.7 °F 21.0 °F 42% 29.99 in 10.0 mi West 9.2 mph - N/A   Clear
8:53 AM 53.1 °F - 23.0 °F 31% 29.99 in 10.0 mi South 5.8 mph - N/A   Clear
9:53 AM 63.0 °F - 25.0 °F 24% 29.99 in 10.0 mi SW 9.2 mph - N/A   Clear
10:53 AM 70.0 °F - 25.0 °F 18% 29.97 in 10.0 mi WSW 9.2 mph - N/A   Clear
11:53 AM 73.0 °F - 21.9 °F 15% 29.98 in 10.0 mi SW 6.9 mph 17.3 mph N/A   Clear
12:53 PM 73.9 °F - 21.0 °F 14% 29.94 in 10.0 mi SW 9.2 mph - N/A   Clear
1:53 PM 77.0 °F - 19.0 °F 11% 29.91 in 10.0 mi WSW 12.7 mph 20.7 mph N/A   Clear
2:53 PM 78.1 °F - 18.0 °F 10% 29.88 in 10.0 mi WSW 11.5 mph 19.6 mph N/A   Clear
3:53 PM 77.0 °F - 16.0 °F 10% 29.87 in 10.0 mi Variable 6.9 mph 19.6 mph N/A   Clear
4:53 PM 78.1 °F - 19.9 °F 11% 29.86 in 10.0 mi West 10.4 mph - N/A   Clear
5:53 PM 75.9 °F - 21.9 °F 13% 29.87 in 10.0 mi West 11.5 mph - N/A   Clear
6:53 PM 73.9 °F - 21.9 °F 14% 29.87 in 10.0 mi WNW 11.5 mph - N/A   Clear
7:53 PM 66.9 °F - 21.9 °F 18% 29.90 in 10.0 mi NW 5.8 mph - N/A   Clear
8:53 PM 61.0 °F - 21.9 °F 22% 29.91 in 10.0 mi NW 8.1 mph - N/A   Clear
9:53 PM 57.9 °F - 19.9 °F 23% 29.91 in 10.0 mi NW 9.2 mph - N/A   Clear
10:53 PM 55.0 °F - 21.0 °F 27% 29.91 in 10.0 mi Variable 4.6 mph - N/A   Clear
11:53 PM 51.1 °F - 21.0 °F 31% 29.92 in 10.0 mi SSW 4.6 mph - N/A   Clear